User: anonymous   Login
Location: Peebles
(55.6412°N, 3.1714°W)
Time: 07:00:09
(UTC+00:00)
Language:

Cosmos 1025 Rocket - Orbit

View from above orbital plane
View from above orbital plane
View from above satellite
View from above satellite

Ground track
Ground track

The orbit data is extracted from the following two-line orbital elements,

1 10974U 78067B   21336.52743974  .00000160  00000-0  14992-4 0  9991
2 10974  82.4837  65.8777 0016973 348.5096  11.5731 14.87435022328610
Epoch (UTC): 02 December 2021 12:39:30
Eccentricity: 0.0016973
inclination: 82.4837°
perigee height: 594 km
apogee height: 618 km
right ascension of ascending node: 65.8777°
argument of perigee: 348.5096°
revolutions per day: 14.87435022
mean anomaly at epoch: 11.5731°
orbit number at epoch: 32861

The dashed part of the orbit path shows where the satellite is in the earth's shadow,  

DLR